Wind_Speed
16 11 15 17 15 16 13 15 17 17 17 20 22 21 19 18 20 20 18 18 17 16 15 19 13 12 17 21 25 28 28 26 24 20 18 15 16 14 16 15 20 20 26 29
8 17 17 13 13 16 18 17 18 16 13 12 18 24 23 24 21 21 21 19 18 16 18 17 17 13 19 23 26 28 29 30 25 22 19 15 14 12 13 15 17 19 20 23
16 1 5 12 14 15 16 15 14 15 15 18 19 23 10 5 14 18 21 23 21 18 18 17 17 17 18 23 28 30 30 29 27 22 19 15 13 9 12 14 15 17 21 26
13 15 12 10 14 15 12 9 11 11 9 7 4 8 11 10 8 10 14 15 18 20 19 19 18 17 22 24 26 27 29 28 26 25 21 19 16 14 14 13 13 11 14 17
5 7 9 15 17 10 8 4 7 9 11 12 15 8 5 6 4 9 6 11 15 18 19 17 16 19 21 22 26 27 27 28 27 27 21 19 17 14 11 12 11 10 10 14
14 1 5 8 7 15 3 5 9 10 8 8 15 10 3 5 11 11 12 12 10 8 11 14 13 15 19 22 26 27 29 28 27 26 21 19 18 15 12 12 15 13 11 11
14 16 12 7 8 7 9 5 3 6 5 7 4 7 10 9 9 10 12 13 13 13 11 10 8 11 18 25 26 26 29 28 28 24 21 18 17 15 14 14 16 17 15 14
5 6 14 12 17 10 12 11 5 6 5 2 4 7 5 4 7 12 12 14 16 17 16 11 7 9 16 22 23 24 28 28 28 24 20 18 16 14 14 14 12 12 14 19
4 2 2 4 5 11 7 8 4 5 11 7 9 6 7 6 11 14 17 18 18 19 19 16 6 8 15 20 22 25 27 26 26 23 20 18 17 15 14 15 13 11 10 12
5 7 4 7 6 6 7 5 4 5 4 5 5 8 3 6 11 14 17 18 17 17 19 18 7 6 12 17 21 24 26 26 26 23 20 18 17 16 15 14 13 11 10 11
11 10 6 8 10 11 6 4 5 1 4 4 3 1 5 6 8 12 13 12 13 15 17 17 8 4 9 15 19 19 22 23 24 23 20 19 16 15 14 13 12 12 12 12
7 6 12 12 3 7 6 6 10 4 4 2 5 3 7 4 4 7 5 9 10 12 15 15 14 4 12 14 18 18 20 20 21 19 18 17 17 15 13 13 12 12 12 12
8 8 11 7 6 5 8 6 2 1 1 6 3 1 4 1 5 3 4 7 8 11 15 14 13 13 9 12 15 17 18 18 18 18 16 15 14 13 12 11 10 10 10 10
11 8 12 9 3 6 8 9 8 4 3 3 7 14 13 10 11 1 3 7 8 11 12 14 13 13 16 17 17 13 14 18 17 16 15 15 12 11 11 11 9 10 10 10
5 5 2 1 2 3 4 5 6 8 8 6 10 16 16 14 12 2 6 7 9 11 12 13 12 11 15 18 19 19 19 20 21 19 16 14 14 12 10 8 8 8 9 9
7 3 3 4 4 1 5 6 7 9 9 11 12 14 6 14 5 8 7 7 10 11 11 12 12 13 13 18 19 18 18 21 22 20 17 14 15 16 15 13 11 11 9 7
5 2 4 1 5 6 6 6 1 1 2 7 10 15 15 6 11 9 7 9 10 11 11 11 12 12 17 18 17 18 18 18 21 23 20 18 17 16 16 16 15 16 15 14
6 9 1 1 4 3 7 1 6 4 8 14 13 14 11 11 12 14 12 7 8 10 11 11 10 15 16 15 16 18 22 23 21 20 20 20 20 19 16 19 19 19 19 19
13 9 1 2 1 5 6 6 6 6 3 12 14 14 3 9 9 11 11 11 8 10 8 13 13 14 15 16 15 22 22 21 23 25 23 20 22 20 17 22 23 21 24 25
10 10 5 1 2 1 7 8 11 6 6 16 16 16 16 8 3 3 8 9 8 12 15 16 13 16 14 15 17 25 20 23 25 26 23 16 21 28 24 19 21 22 23 23
6 6 7 5 3 2 8 15 13 5 7 16 13 12 14 3 6 12 11 9 10 13 15 16 17 17 16 17 21 27 25 25 23 20 24 18 21 21 20 19 18 21 21 21
4 5 3 4 4 4 13 4 6 7 7 7 9 9 12 14 13 13 11 10 10 15 18 18 18 20 19 19 20 23 26 20 19 19 19 20 20 18 20 20 18 20 21 21
2 4 3 3 4 8 8 7 6 7 4 5 7 10 10 10 11 11 11 11 11 17 17 17 17 19 21 21 21 24 19 17 19 20 20 21 22 22 20 20 18 20 20 19
2 4 2 5 7 9 7 6 6 7 9 10 11 12 11 11 10 9 9 10 12 16 17 16 17 20 21 20 21 20 17 16 18 21 21 21 23 23 22 23 21 21 21 17
3 7 4 2 8 8 10 8 6 9 10 11 11 11 12 9 9 9 11 11 16 18 18 17 18 18 19 19 20 18 15 14 17 18 18 19 22 24 28 30 24 26 27 18
3 3 3 3 4 3 4 6 8 11 10 9 10 11 11 11 9 11 10 15 16 17 16 18 18 17 17 19 20 18 15 13 14 15 14 14 15 16 17 18 23 26 25 24
Wind_Direction
193 211 218 226 223 251 263 268 274 279 281 281 279 277 276 273 263 254 248 254 244 243 244 243 232 212 196 193 190 189 185 183 177 181 179 183 196 195 207 216 222 219 222 222
186 223 234 232 236 238 250 259 270 282 273 277 284 284 283 266 256 253 248 245 248 253 248 240 232 209 198 192 190 189 186 179 185 186 184 187 193 201 211 219 223 224 221 222
231 209 216 222 227 233 237 250 265 276 292 278 277 284 255 262 250 251 248 249 245 250 252 245 241 215 200 197 192 190 184 183 182 181 169 184 181 191 207 218 223 225 233 236
248 246 225 228 238 221 238 232 253 269 282 278 5 290 298 288 301 261 254 251 242 239 243 244 248 212 205 201 191 188 184 183 178 175 173 187 195 196 210 212 220 221 241 243
220 222 221 235 238 206 244 186 245 262 269 292 271 252 259 246 316 3 343 309 247 247 248 255 239 226 206 193 185 185 180 181 176 174 183 186 197 196 204 200 192 215 231 230
262 280 253 251 246 226 204 219 244 254 258 253 249 231 258 37 356 338 350 340 351 325 299 288 263 228 200 186 178 176 175 174 172 172 183 188 192 191 196 185 182 189 195 195
239 234 225 209 206 184 210 214 238 205 206 251 139 226 275 17 7 359 355 350 341 338 332 321 258 207 187 179 165 167 169 169 169 177 182 188 190 190 193 174 172 177 178 178
244 208 210 201 225 236 215 213 242 264 239 245 179 241 111 69 29 13 4 358 353 346 341 334 266 205 184 175 159 168 169 164 167 176 178 184 191 182 190 186 183 180 183 193
276 235 157 206 213 197 171 217 281 264 241 262 246 207 183 56 32 16 13 6 353 349 343 346 296 184 181 167 165 169 167 164 165 172 171 177 184 172 181 183 190 193 194 182
264 262 193 154 168 206 251 141 187 208 237 237 202 247 139 32 21 8 1 1 354 352 346 342 6 171 165 157 171 173 173 165 165 169 170 176 180 178 175 182 180 187 193 189
265 243 175 172 207 200 173 193 220 266 279 295 299 159 108 79 17 340 354 358 355 358 348 344 342 117 155 158 168 162 161 162 164 166 169 174 175 175 169 179 184 184 183 185
299 266 236 223 128 266 232 199 211 242 163 290 311 308 115 147 315 346 8 10 1 11 355 351 360 86 126 145 146 155 157 159 158 164 168 169 171 172 176 187 190 178 178 180
353 246 218 208 205 211 221 181 173 329 11 249 280 60 124 162 330 32 31 34 21 17 6 359 6 32 38 126 138 146 150 153 154 155 161 158 161 172 180 188 190 187 181 181
290 238 242 254 13 152 189 191 200 207 222 278 266 291 299 327 309 76 47 62 48 36 20 5 8 26 28 45 50 81 127 140 144 147 153 148 151 162 177 189 194 190 197 196
262 195 295 197 104 138 156 195 211 229 243 264 300 300 314 314 325 2 120 82 69 47 33 13 8 20 28 34 47 49 56 79 105 100 95 95 108 126 147 176 194 182 184 194
284 117 66 350 190 172 264 247 259 254 258 268 276 284 340 314 346 138 123 98 84 68 49 27 14 27 31 34 40 47 48 64 82 87 81 79 87 95 96 99 105 114 112 142
286 162 141 158 241 324 262 173 139 234 279 321 314 321 313 328 34 104 86 93 95 88 68 41 27 27 35 40 41 50 53 62 68 75 71 69 71 72 81 88 86 82 79 88
286 302 299 96 283 200 86 87 81 339 63 24 2 358 22 62 69 59 63 59 85 90 83 62 38 37 36 46 49 61 60 59 61 65 70 69 67 67 69 79 76 75 79 75
228 278 332 306 296 325 122 65 6 351 54 16 355 351 35 122 97 43 40 42 32 65 53 72 65 53 48 53 55 66 62 65 63 55 51 61 76 71 69 73 76 74 78 74
220 228 274 175 309 321 68 353 341 305 227 11 354 340 320 188 222 94 54 50 47 56 59 57 57 67 60 64 71 69 63 59 61 58 58 58 68 71 68 66 79 82 81 77
168 198 225 227 258 287 5 335 316 233 355 347 359 347 327 175 73 114 99 79 65 69 69 66 63 65 53 54 63 63 58 56 57 59 67 60 68 76 81 82 82 85 83 81
175 167 185 217 230 239 9 2 14 347 314 7 32 51 77 86 91 93 88 78 66 70 70 66 64 57 56 62 67 71 63 60 63 68 74 74 71 77 79 82 80 83 86 83
92 9 339 308 45 68 41 36 9 340 25 38 78 83 84 90 86 87 86 78 74 68 63 61 63 65 57 56 61 67 68 72 75 75 72 71 73 71 70 77 78 76 77 77
78 3 252 281 77 82 62 57 38 35 61 67 83 93 87 88 84 82 88 79 72 68 65 61 62 61 57 53 57 63 69 74 78 77 74 70 70 72 70 66 65 66 64 68
347 321 335 270 88 108 64 42 49 67 72 77 78 88 96 95 89 87 80 74 71 71 68 66 63 61 59 57 57 58 63 72 77 78 78 77 77 75 70 65 64 66 63 67
3 2 327 8 21 15 59 52 69 74 71 76 84 77 77 89 95 95 83 79 78 74 72 70 66 66 63 61 56 54 60 69 77 78 77 77 79 82 83 82 76 69 73 69
Height
743 746 742 738 742 740 738 741 742 735 728 731 726 713 704 696 691 688 688 684 681 679 679 679 682 689 695 699 704 711 717 723 728 734 738 742 747 749 751 754 757 760 762 765
745 739 729 731 739 745 741 738 733 727 726 727 716 707 696 689 684 680 678 677 675 673 673 672 676 684 690 694 698 705 711 716 724 730 734 739 744 746 749 752 754 757 759 761
733 726 728 734 738 743 738 738 733 732 726 719 712 693 678 675 670 669 669 668 667 669 668 667 668 676 684 688 692 699 705 712 719 725 730 737 741 744 747 749 750 752 754 756
733 724 733 735 735 734 733 726 732 732 733 720 708 706 678 673 667 666 665 662 661 663 661 661 661 665 674 681 688 696 702 709 716 721 727 732 735 739 741 745 746 749 749 750
729 732 729 731 728 729 728 728 729 729 728 721 711 713 671 666 670 666 658 656 656 656 655 653 653 657 667 676 682 692 699 707 712 717 723 728 733 735 737 741 744 746 747 747
726 726 727 721 723 723 726 730 728 725 725 729 701 699 671 671 682 675 669 665 663 662 661 656 653 654 662 670 678 688 695 703 709 714 720 725 730 732 735 739 742 745 747 747
721 724 721 724 725 726 727 728 722 722 732 704 691 696 673 677 679 677 675 674 671 667 661 658 654 655 660 667 675 685 692 699 705 712 718 724 727 730 734 737 739 743 746 747
718 720 717 714 718 716 720 719 715 716 701 691 690 690 672 678 675 676 677 678 677 674 667 658 655 658 662 668 677 686 691 697 703 710 716 722 726 729 733 736 739 742 744 746
718 715 716 716 715 715 720 723 712 722 713 714 683 670 675 672 678 686 683 682 684 683 677 662 654 660 664 668 678 684 690 696 702 709 715 720 724 727 731 734 738 740 743 746
720 719 712 715 716 718 714 710 729 721 718 703 671 671 673 683 692 690 686 687 689 690 686 675 662 662 662 670 679 684 688 695 700 707 713 719 723 725 729 733 736 739 742 744
721 712 714 715 714 708 719 722 723 721 718 700 687 673 681 695 699 692 690 697 698 696 694 684 669 665 669 674 679 684 689 696 700 706 711 716 721 725 728 732 735 738 740 742
725 713 707 706 707 700 700 706 708 707 711 711 712 685 681 691 690 690 700 699 703 703 701 694 685 673 675 680 683 688 692 697 702 707 711 714 718 723 727 731 733 736 739 741
761 714 708 709 709 705 706 710 716 718 716 709 712 687 681 686 685 696 699 701 707 708 707 703 696 688 684 683 686 690 694 698 703 707 712 715 718 722 726 730 732 735 738 741
763 730 701 695 696 693 706 705 704 708 713 706 700 688 679 679 679 688 702 705 710 714 715 711 705 700 697 693 692 692 695 699 703 708 712 715 719 722 725 729 732 734 737 739
744 718 713 705 704 701 701 703 703 703 704 705 693 690 684 680 681 683 702 709 714 719 721 721 718 712 708 703 700 700 701 700 703 708 713 715 719 722 725 729 732 734 737 739
743 722 732 728 709 706 707 701 702 702 700 697 694 688 679 679 681 696 703 712 719 724 727 728 728 721 718 713 711 710 710 708 709 713 717 720 721 723 726 728 730 732 735 737
740 721 727 731 710 705 705 701 701 701 697 697 697 690 682 683 696 704 715 719 724 728 730 732 733 730 727 722 721 719 718 717 717 718 722 724 725 728 729 731 732 735 738 740
742 728 711 711 712 710 704 699 701 701 700 710 706 702 709 714 726 725 728 731 732 732 732 735 736 735 734 731 729 726 724 724 726 726 727 728 729 733 736 735 737 739 742 744
733 728 713 715 709 701 703 710 712 710 707 715 712 710 713 726 732 741 743 743 743 739 739 736 741 741 740 738 735 729 731 732 733 732 734 737 735 739 743 739 740 745 747 750
723 724 718 719 719 712 708 711 711 709 703 716 718 719 716 719 713 745 751 753 753 749 745 742 745 745 746 746 742 735 741 738 738 737 743 750 744 737 742 750 749 751 753 756
718 717 717 712 717 707 719 716 709 707 721 725 733 733 720 713 736 752 755 757 760 755 752 753 749 746 751 747 743 739 744 747 745 750 740 755 754 753 755 758 759 757 760 762
709 709 714 712 718 720 731 716 719 738 735 739 742 744 748 750 752 754 757 760 759 759 760 759 757 755 753 751 753 752 750 755 758 759 763 762 763 764 761 764 766 764 765 768
723 732 722 713 721 741 747 747 750 750 747 746 748 753 756 758 760 760 761 764 765 762 763 766 765 765 763 761 759 756 761 764 765 767 769 768 766 766 769 771 772 770 770 772
732 736 735 726 746 752 755 757 759 759 757 756 757 758 762 764 766 768 767 768 767 768 769 771 769 768 767 768 766 766 769 770 770 770 773 773 772 774 777 777 777 775 774 780
745 742 741 728 751 757 760 763 762 762 763 764 765 766 767 770 772 771 771 771 771 772 773 775 775 775 775 775 774 774 775 777 777 777 780 782 782 782 783 783 784 784 787 789
758 759 748 746 760 758 765 768 767 767 769 770 771 775 776 776 778 778 777 777 777 779 780 781 783 785 785 782 781 782 783 783 783 785 787 788 787 788 790 792 793 795 796 795